Weather History for Fort Huachuca, AZ

Change the Weather History Date:

Thursday, May 16, 2013

  Actual Average (KFHU) Record (KFHU)
Temperature  
Mean Temperature 72 °F -  
Max Temperature 86 °F 83 °F 93 °F (1988)
Min Temperature 59 °F 61 °F 48 °F (1989)
Cooling Degree Days 8    
Growing Degree Days 22 (Base 50)    
Moisture  
Dew Point 20 °F    
Average Humidity 14    
Maximum Humidity 26    
Minimum Humidity 6    
Precipitation  
Precipitation 0.00 in - - ()
Sea Level Pressure  
Sea Level Pressure 29.83 in    
Wind  
Wind Speed 13 mph (SW)    
Max Wind Speed 20 mph    
Max Gust Speed 25 mph    
Visibility 10 miles    
Events      
Averages and records for this station are not official NWS values.
T = Trace of Precipitation, MM = Missing Value Source: NWS Daily Summary

Daily Weather History Graph

Daily Weather History Graph

Search for Another Location

Airport:

Trip Planner

Search our weather history database for the weather conditions in past years. The results will help you decide how hot, cold, wet, or windy it might be!

Date:

Astronomy

May. 16, 2013 Rise Set
Actual Time 5:24 AM MST 7:12 PM MST
Civil Twilight 4:57 AM MST 7:39 PM MST
Nautical Twilight 4:25 AM MST 8:11 PM MST
Astronomical Twilight 3:51 AM MST 8:45 PM MST
Moon 10:54 AM MST (5/16) No Moon Set
Length of Visible Light 14h 41m
Length of Day
13h 47m
Waxing Crescent, 36% of the Moon is Illuminated
May 16
Waxing Crescent
May 17
First Quarter
May 24
Full
May 31
Last Quarter
Jun 8
New

Hourly Weather History & Observations

Time (MST) Temp. Dew Point Humidity Pressure Visibility Wind Dir Wind Speed Gust Speed Precip Events Conditions
1:56 AM 69.1 °F 26.1 °F 20% 29.82 in 10.0 mi SW 15.0 mph - N/A   Clear
2:56 AM 66.9 °F 24.1 °F 20% 29.82 in 10.0 mi SW 15.0 mph - N/A   Clear
3:56 AM 61.0 °F 25.0 °F 25% 29.84 in 10.0 mi SW 11.5 mph - N/A   Clear
4:56 AM 60.1 °F 25.0 °F 26% 29.84 in 10.0 mi SW 11.5 mph - N/A   Clear
5:56 AM 59.0 °F 24.1 °F 26% 29.85 in 10.0 mi WSW 10.4 mph - N/A   Clear
6:56 AM 64.4 °F 26.6 °F 24% 30.13 in 10.0 mi WNW 4.6 mph - N/A   Clear
7:56 AM 73.9 °F 21.0 °F 14% 29.85 in 10.0 mi WSW 9.2 mph - N/A   Clear
8:26 AM 75.2 °F 21.2 °F 13% 30.13 in 10.0 mi WSW 11.5 mph - N/A   Partly Cloudy
8:56 AM 75.9 °F 21.9 °F 13% 29.85 in 10.0 mi WSW 11.5 mph 16.1 mph N/A   Clear
9:56 AM 80.1 °F 25.0 °F 13% 29.84 in 10.0 mi South 12.7 mph 19.6 mph N/A   Clear
10:56 AM 81.0 °F 23.0 °F 12% 29.83 in 10.0 mi WSW 13.8 mph 23.0 mph N/A   Clear
11:56 AM 82.0 °F 18.0 °F 9% 29.81 in 10.0 mi West 12.7 mph 24.2 mph N/A   Clear
12:56 PM 84.9 °F 17.1 °F 8% 29.78 in 10.0 mi SSW 15.0 mph 25.3 mph N/A   Clear
1:56 PM 86.0 °F 17.1 °F 8% 29.77 in 10.0 mi West 13.8 mph 24.2 mph N/A   Clear
2:56 PM 84.9 °F 15.1 °F 7% 29.75 in 10.0 mi WSW 12.7 mph 25.3 mph N/A   Clear
3:56 PM 84.9 °F 12.0 °F 7% 29.74 in 10.0 mi South 13.8 mph 20.7 mph N/A   Clear
4:56 PM 84.0 °F 10.9 °F 6% 29.74 in 10.0 mi SW 19.6 mph 23.0 mph N/A   Clear
5:56 PM 82.9 °F 14.0 °F 8% 29.73 in 10.0 mi West 12.7 mph - N/A   Clear
6:56 PM 78.1 °F 15.1 °F 9% 29.74 in 10.0 mi WSW 12.7 mph - N/A   Clear
7:56 PM 73.9 °F 17.1 °F 12% 29.75 in 10.0 mi SSW 10.4 mph - N/A   Clear
10:56 PM 66.9 °F 19.9 °F 17% 29.80 in 10.0 mi SW 11.5 mph - N/A   Clear
11:56 PM 64.0 °F 24.1 °F 22% 29.80 in 10.0 mi SW 9.2 mph - N/A   Clear